This demonstration page uses our WeatherBlox Daily Observations layout. Learn more.

Hourly Observations for February 11, 2019

Temp ( °F °C ) Dew Point ( °F °C ) Humidity (%) Winds ( mph kmh ) Pressure ( in mb ) Visibility ( mi km ) Precip ( " mm )
12:15 am 00:15 Cloudy with Mist and Fog 25 -4 25 -4 100 100 E 13 20 30.1 1019 3 4.82802 0 0
12:35 am 00:35 Cloudy with Mist and Fog 25 -4 25 -4 100 100 E 13 20 30.09 1019 2.5 4.02335 0 0
12:55 am 00:55 Cloudy with Mist and Fog 25 -4 25 -4 100 100 E 13 20 30.09 1019 1.5 2.41401 0 0
1:15 am 01:15 Cloudy with Mist and Fog 25 -4 25 -4 100 100 E 15 24 30.09 1019 1.5 2.41401 0 0
1:35 am 01:35 Cloudy with Mist and Fog 25 -4 25 -4 100 100 E 14 22 30.08 1019 1.5 2.41401 0 0
1:55 am 01:55 Cloudy with Mist and Fog 25 -4.1 25 -4.1 100 100 E 13 20 30.07 1018 1.25 2.011675 0 0
2:15 am 02:15 Cloudy with Mist and Fog 25 -4 25 -4 100 100 E 14 22 30.06 1018 1.25 2.011675 0 0
2:35 am 02:35 Cloudy with Mist and Fog 25 -4 25 -4 100 100 E 15 24 30.05 1018 1.25 2.011675 0 0
2:55 am 02:55 Cloudy with Mist and Fog 25 -3.9 25 -3.9 100 100 E 12 19 30.04 1017 1.5 2.41401 0 0
3:15 am 03:15 Cloudy with Mist and Fog 25 -3.7 25 -3.7 100 100 E 12 19 30.04 1017 1.5 2.41401 0 0
3:35 am 03:35 Cloudy with Mist and Fog 26 -3.3 26 -3.3 100 100 E 14 22 30.03 1017 1.5 2.41401 0 0
3:55 am 03:55 Cloudy with Mist and Fog 27 -3 27 -3 100 100 ESE 15 24 30.02 1017 2 3.21868 0 0
4:15 am 04:15 Cloudy with Mist and Fog 27 -3 27 -3 100 100 ESE 14 22 30 1016 2 3.21868 0 0
4:35 am 04:35 Cloudy with Mist and Fog 27 -3 27 -3 100 100 ESE 14 22 29.99 1016 2 3.21868 0 0
4:55 am 04:55 Cloudy with Mist and Fog 27 -3 27 -3 100 100 E 15 24 29.98 1015 2 3.21868 0 0
5:15 am 05:15 Cloudy with Mist and Fog 26 -3.1 26 -3.1 100 100 E 14 22 29.97 1015 2 3.21868 0 0
5:35 am 05:35 Cloudy with Mist and Fog 26 -3.1 26 -3.1 100 100 E 14 22 29.96 1015 2 3.21868 0 0
5:55 am 05:55 Cloudy with Mist and Fog 27 -3 27 -3 100 100 E 15 24 29.96 1015 2 3.21868 0 0
6:15 am 06:15 Cloudy with Mist and Fog 27 -3 27 -3 100 100 E 10 17 29.97 1015 2 3.21868 0 0
6:35 am 06:35 Cloudy with Mist and Fog 27 -3 27 -3 100 100 E 12 19 29.96 1015 1.75 2.816345 0 0
6:55 am 06:55 Cloudy with Mist and Fog 27 -3 27 -3 100 100 E 10 17 29.96 1015 2 3.21868 0 0
7:15 am 07:15 Cloudy with Mist and Fog 27 -3 27 -3 100 100 E 12 19 29.95 1014 2 3.21868 0 0
7:35 am 07:35 Cloudy with Mist and Fog 27 -3 27 -3 100 100 E 13 20 29.95 1014 1.75 2.816345 0 0
7:55 am 07:55 Cloudy with Mist and Fog 27 -2.8 27 -2.8 100 100 E 13 20 29.94 1014 2 3.21868 0 0
8:15 am 08:15 Cloudy with Mist and Fog 27 -2.8 27 -2.8 100 100 E 14 22 29.93 1014 2 3.21868 0 0
8:35 am 08:35 Cloudy with Mist and Fog 27 -3 27 -3 100 100 E 13 20 29.92 1013 1.25 2.011675 0 0
8:55 am 08:55 Cloudy with Mist and Fog 27 -3 27 -3 100 100 E 12 19 29.92 1013 1.25 2.011675 0 0
9:15 am 09:15 Cloudy with Mist and Fog 27 -3 27 -3 100 100 E 13 20 29.92 1013 1.5 2.41401 0 0
9:35 am 09:35 Cloudy with Mist and Fog 27 -3 27 -3 100 100 E 13 20 29.91 1013 1.5 2.41401 0 0
9:55 am 09:55 Cloudy with Mist and Fog 27 -2.8 27 -2.8 100 100 E 14 22 29.91 1013 1.5 2.41401 0 0
10:15 am 10:15 Cloudy with Mist and Fog 27 -2.8 27 -2.8 100 100 E 12 19 29.91 1013 1.5 2.41401 0 0
10:35 am 10:35 Cloudy with Mist and Fog 27 -2.6 27 -2.6 100 100 E 12 19 29.91 1013 1.5 2.41401 0 0
10:55 am 10:55 Cloudy with Mist and Fog 27 -2.6 27 -2.6 100 100 E 12 19 29.9 1012 1.75 2.816345 0 0
11:15 am 11:15 Cloudy with Mist and Fog 28 -2.5 28 -2.5 100 100 E 12 19 29.9 1012 2 3.21868 0 0
11:35 am 11:35 Cloudy with Mist and Fog 28 -2.3 28 -2.3 100 100 E 12 19 29.9 1012 3 4.82802 0 0
11:55 am 11:55 Cloudy with Mist and Fog 28 -2.2 28 -2.2 100 100 E 8 13 29.89 1012 2.5 4.02335 0 0
12:15 pm 12:15 Cloudy with Mist and Fog 28 -2 28 -2 100 100 E 8 13 29.88 1012 3 4.82802 0 0
12:35 pm 12:35 Cloudy with Mist and Fog 28 -2 28 -2 100 100 E 10 17 29.87 1012 3 4.82802 0 0
12:55 pm 12:55 Cloudy with Mist and Fog 29 -1.8 29 -1.8 100 100 E 9 15 29.86 1011 3 4.82802 0 0
1:15 pm 13:15 Cloudy with Mist and Fog 29 -1.7 29 -1.7 100 100 E 9 15 29.86 1011 3 4.82802 0 0
1:35 pm 13:35 Cloudy with Mist and Fog 29 -1.9 29 -1.9 100 100 E 8 13 29.85 1011 2.5 4.02335 0 0
1:55 pm 13:55 Cloudy with Mist and Fog 29 -1.7 29 -1.7 100 100 E 7 11 29.85 1011 2 3.21868 0 0
2:15 pm 14:15 Cloudy with Mist and Fog 29 -1.6 29 -1.6 100 100 ENE 7 11 29.86 1011 2.5 4.02335 0 0
2:35 pm 14:35 Cloudy with Mist and Fog 29 -1.7 29 -1.7 100 100 NE 6 9 29.86 1011 5 8.0467 0 0
2:55 pm 14:55 Cloudy with Mist and Fog 29 -1.7 29 -1.7 100 100 ENE 7 11 29.86 1011 4 6.43736 0 0
3:15 pm 15:15 Cloudy with Mist and Fog 29 -1.5 29 -1.5 100 100 ENE 6 9 29.87 1011 4 6.43736 0 0
3:35 pm 15:35 Cloudy with Mist and Fog 29 -1.6 29 -1.6 100 100 NNE 7 11 29.9 1013 5 8.0467 0 0
3:55 pm 15:55 Cloudy with Light Wintry Mix 29 -1.6 29 -1.6 100 100 NNE 7 11 29.9 1013 3 4.82802 0 0
4:15 pm 16:15 Cloudy with Mist and Fog 28 -2 28 -2 100 100 NE 6 9 29.9 1013 5 8.0467 0 0
4:35 pm 16:35 Cloudy with Mist and Fog 28 -2 28 -2 100 100 NE 6 9 29.92 1013 5 8.0467 0 0
4:55 pm 16:55 Cloudy 28 -2.1 28 -2.1 100 100 NE 6 9 29.92 1013 10 16.0934 0 0
5:15 pm 17:15 Cloudy 28 -2.1 28 -2.1 100 100 NE 5 7 29.92 1013 10 16.0934 0 0
5:35 pm 17:35 Cloudy 28 -2.2 28 -2.3 99 99 N 5 7 29.94 1014 10 16.0934 0 0
6:15 pm 18:15 Cloudy 28 -2.3 28 -2.5 99 99 N 5 7 29.96 1014 10 16.0934 0 0
6:35 pm 18:35 Cloudy 28 -2.3 28 -2.5 99 99 NNW 5 7 29.98 1015 10 16.0934 0 0
6:55 pm 18:55 Cloudy 28 -2.3 28 -2.5 99 99 NNW 3 6 29.98 1015 10 16.0934 0 0
7:15 pm 19:15 Cloudy 28 -2.4 28 -2.5 99 99 N 5 7 29.98 1015 10 16.0934 0 0
7:35 pm 19:35 Cloudy 28 -2.5 27 -2.6 99 99 NNW 6 9 29.99 1016 10 16.0934 0 0
7:55 pm 19:55 Cloudy 27 -2.6 27 -2.7 99 99 N 3 6 29.98 1015 10 16.0934 0 0
8:15 pm 20:15 Mostly Cloudy 26 -3.3 26 -3.5 99 99 N 3 6 30 1016 10 16.0934 0 0
8:35 pm 20:35 Partly Cloudy 24 -4.2 24 -4.3 99 99 NNW 3 6 30.02 1016 10 16.0934 0 0
8:55 pm 20:55 Mostly Cloudy 23 -5.2 23 -5.2 100 100 NW 6 9 30.04 1017 10 16.0934 0 0
9:15 pm 21:15 Cloudy 26 -3.6 26 -3.6 100 100 NW 5 7 30.03 1017 10 16.0934 0 0
9:35 pm 21:35 Cloudy 26 -3.5 26 -3.5 100 100 NW 3 6 30.03 1017 10 16.0934 0 0
9:55 pm 21:55 Cloudy 26 -3.3 26 -3.3 100 100 WNW 3 6 30.04 1017 10 16.0934 0 0
10:15 pm 22:15 Cloudy 26 -3.2 26 -3.2 100 100 WNW 5 7 30.04 1017 10 16.0934 0 0
10:35 pm 22:35 Cloudy 26 -3.5 26 -3.5 100 100 WNW 7 11 30.04 1017 10 16.0934 0 0
10:55 pm 22:55 Cloudy with Mist and Fog 25 -4 25 -4 100 100 WNW 6 9 30.05 1018 2.5 4.02335 0 0
11:15 pm 23:15 Mostly Cloudy 24 -4.7 24 -4.7 100 100 WNW 6 9 30.07 1018 7 11.26538 0 0
11:35 pm 23:35 Clear 23 -4.9 23 -4.9 100 100 WNW 8 13 30.07 1018 10 16.0934 0 0
11:55 pm 23:55 Clear 22 -5.5 22 -5.5 100 100 NW 7 11 30.08 1019 10 16.0934 0 0

Powered by AerisWeather